TimeCST,TemperatureF,Dew PointF,Humidity,Sea Level PressureIn,VisibilityMPH,Wind Direction,Wind SpeedMPH,Gust SpeedMPH,PrecipitationIn,Events,Conditions,WindDirDegrees,DateUTC
12:53 AM,37.9,28.9,70,30.34,10.0,North,8.1,-,N/A,,Clear,360,2013-01-04 06:53:00
1:53 AM,39.0,28.9,67,30.33,10.0,NNE,5.8,-,N/A,,Clear,20,2013-01-04 07:53:00
2:53 AM,39.0,28.9,67,30.34,10.0,North,8.1,-,N/A,,Clear,10,2013-01-04 08:53:00
3:53 AM,37.9,28.9,70,30.33,10.0,North,9.2,-,N/A,,Clear,10,2013-01-04 09:53:00
4:53 AM,37.4,28.4,70,30.33,10.0,North,9.2,-,N/A,,Clear,360,2013-01-04 10:53:00
5:53 AM,37.0,28.0,70,30.35,10.0,North,3.5,-,N/A,,Clear,360,2013-01-04 11:53:00
6:53 AM,36.0,28.9,76,30.39,10.0,North,4.6,-,N/A,,Clear,360,2013-01-04 12:53:00
7:53 AM,39.9,30.0,68,30.39,10.0,North,10.4,-,N/A,,Clear,10,2013-01-04 13:53:00
8:53 AM,42.1,30.0,62,30.40,10.0,NNE,12.7,-,N/A,,Clear,20,2013-01-04 14:53:00
9:53 AM,46.0,30.0,54,30.42,10.0,North,11.5,-,N/A,,Clear,10,2013-01-04 15:53:00
10:53 AM,48.9,28.9,46,30.41,10.0,North,8.1,-,N/A,,Clear,10,2013-01-04 16:53:00
11:53 AM,51.1,28.9,43,30.38,10.0,North,10.4,-,N/A,,Clear,350,2013-01-04 17:53:00
12:53 PM,54.0,27.0,35,30.35,10.0,North,12.7,18.4,N/A,,Clear,10,2013-01-04 18:53:00
1:53 PM,57.0,28.9,34,30.33,10.0,North,11.5,-,N/A,,Clear,10,2013-01-04 19:53:00
2:53 PM,57.0,28.0,33,30.32,10.0,North,8.1,-,N/A,,Clear,350,2013-01-04 20:53:00
3:53 PM,55.0,28.0,35,30.34,10.0,North,5.8,-,N/A,,Clear,10,2013-01-04 21:53:00
4:53 PM,52.0,33.1,49,30.35,10.0,North,3.5,-,N/A,,Clear,350,2013-01-04 22:53:00
5:53 PM,48.9,34.0,56,30.37,10.0,North,3.5,-,N/A,,Clear,10,2013-01-04 23:53:00
6:53 PM,46.9,33.1,59,30.39,10.0,Calm,Calm,-,N/A,,Clear,0,2013-01-05 00:53:00
7:53 PM,44.6,35.6,71,30.38,10.0,NNW,4.6,-,N/A,,Clear,340,2013-01-05 01:53:00
8:53 PM,46.0,34.0,63,30.38,10.0,North,5.8,-,N/A,,Clear,360,2013-01-05 02:53:00
9:53 PM,43.0,35.1,74,30.38,10.0,North,3.5,-,N/A,,Clear,350,2013-01-05 03:53:00
10:53 PM,46.0,32.0,58,30.37,10.0,NNE,4.6,-,N/A,,Clear,20,2013-01-05 04:53:00
11:53 PM,46.0,32.0,58,30.36,10.0,North,5.8,-,N/A,,Clear,360,2013-01-05 05:53:00